Theta_e
282 281 281 282 282 283 282 280 279 279 279 280 280 280 280 280 280 280 281 281 282 282 283 284 285 285 285 285 286 286 287 288 288 288 288 289 292 293 291 288 287 289
281 281 280 281 282 282 281 279 279 279 279 279 279 279 279 279 279 279 280 280 281 281 282 283 284 284 284 284 285 285 286 287 287 287 288 289 291 290 288 287 288 289
281 280 280 280 281 281 279 278 278 278 278 278 278 278 278 278 279 279 279 279 280 280 281 282 282 283 283 284 284 284 285 286 286 286 287 288 289 288 287 287 288 288
280 280 279 279 279 280 279 278 278 278 278 278 278 278 278 278 278 279 279 279 279 279 280 281 281 282 282 283 283 283 284 284 285 285 287 287 287 286 286 287 287 287
280 279 279 278 278 278 278 277 277 277 277 277 278 278 277 278 278 278 278 278 278 279 279 279 280 281 281 281 282 282 283 283 284 285 286 286 285 285 286 287 287 286
279 279 278 278 278 277 277 276 276 276 276 277 277 277 277 277 277 277 277 278 278 278 278 278 279 279 280 281 281 281 282 282 283 284 285 284 284 285 286 286 286 286
279 278 278 277 277 277 276 276 276 276 276 276 276 276 276 276 276 276 276 276 277 277 277 277 278 278 279 279 280 280 280 281 283 283 283 283 284 284 285 286 286 286
278 277 277 276 276 276 276 276 275 275 275 275 276 276 275 275 275 275 275 275 276 276 276 276 277 277 278 278 278 279 280 281 282 282 282 283 283 284 284 285 285 285
277 277 276 276 275 275 275 275 275 275 275 275 275 275 275 275 275 275 275 275 275 275 275 276 276 276 277 277 277 278 279 280 280 281 281 282 283 283 284 284 284 284
277 276 276 276 275 275 275 274 275 275 275 275 275 275 275 275 275 275 274 275 275 275 275 275 275 275 276 276 277 277 278 279 279 280 281 282 282 283 283 283 283 284
277 276 275 275 275 275 275 275 275 275 275 275 274 274 274 274 274 274 274 274 274 274 274 274 275 275 275 275 276 277 278 278 279 280 280 281 281 282 282 282 283 283
277 276 275 275 275 275 275 274 274 274 275 275 274 274 274 274 274 274 274 274 274 274 274 274 274 274 275 275 276 276 277 278 279 280 280 280 281 281 281 282 282 283
276 276 275 274 274 274 274 274 274 274 274 274 274 274 274 274 274 274 274 273 273 273 273 273 274 274 274 275 275 276 278 278 279 279 280 280 280 280 281 282 282 283
276 276 275 274 274 274 274 273 273 274 274 274 274 274 273 273 273 273 273 273 273 273 273 273 273 274 274 274 275 277 278 278 279 279 279 279 280 280 281 282 282 282
276 276 275 274 274 274 274 273 273 274 274 274 274 273 273 273 273 273 273 273 273 273 273 273 273 273 273 274 276 277 278 278 278 279 279 279 280 281 281 281 281 280
276 275 275 274 274 274 273 273 273 273 273 273 273 273 273 273 273 273 273 273 272 272 272 272 273 272 273 275 276 277 277 278 278 278 279 279 280 280 280 280 279 279
275 275 274 274 273 273 273 272 272 273 273 273 273 273 273 273 273 273 273 272 272 272 272 272 272 272 273 274 276 277 277 277 278 278 278 278 279 280 279 279 278 277
275 274 274 273 273 272 272 272 272 272 272 272 272 272 272 272 272 272 272 272 271 271 271 271 271 272 273 274 275 276 276 277 277 277 277 278 278 279 278 278 277 276
274 273 273 272 272 271 271 271 271 271 271 271 271 271 271 271 271 271 271 271 270 270 270 271 271 271 272 274 275 275 276 276 277 276 276 276 277 278 277 276 276 275
273 273 272 272 271 271 271 270 270 270 270 270 270 270 270 270 270 270 270 270 269 269 270 270 270 271 272 273 274 275 275 276 276 275 275 276 277 277 277 275 275 275
272 272 271 271 271 270 270 270 270 270 270 269 269 269 269 269 269 269 269 269 269 269 269 269 270 271 272 273 273 274 275 275 275 275 275 276 276 276 276 275 274 274
272 271 271 271 270 270 269 269 269 269 269 269 268 269 269 268 268 268 268 268 268 268 269 269 269 270 271 272 273 273 274 274 274 274 275 275 276 275 274 274 274 274
271 270 270 270 270 269 269 268 268 268 268 268 267 267 267 267 267 267 267 267 267 268 268 268 269 269 270 271 272 273 273 273 273 274 274 275 275 274 273 273 273 274
270 270 270 269 269 268 268 267 267 267 267 267 266 266 266 266 266 267 267 267 267 267 268 268 268 269 270 271 271 272 273 273 273 273 274 274 274 273 273 273 273 273
270 269 269 269 268 268 267 267 267 267 267 266 266 266 266 266 266 266 266 266 267 267 267 268 268 268 269 270 271 272 272 272 272 273 273 273 273 273 272 272 273 273
270 269 269 268 268 267 267 267 267 266 266 266 265 265 265 265 265 265 266 266 266 266 267 267 267 267 268 269 270 271 271 272 272 272 272 272 272 272 272 272 273 273
Wind_Speed
24 24 23 22 21 19 21 26 26 26 28 26 25 27 27 28 30 32 31 30 29 29 28 27 27 28 29 30 30 29 27 26 26 26 28 29 24 22 26 31 31 25
24 25 25 24 22 19 22 26 25 25 26 25 24 25 26 27 30 30 30 30 30 29 28 27 28 28 29 30 30 28 26 27 27 27 28 27 22 24 30 31 26 24
23 25 25 25 22 20 24 27 25 25 26 25 26 27 27 28 30 30 30 30 30 29 28 28 28 29 29 30 30 28 26 26 27 27 27 24 21 26 29 26 23 24
23 24 25 25 23 22 25 27 27 27 27 27 28 28 28 30 30 31 31 31 31 30 29 29 29 29 29 30 30 28 26 26 26 27 25 22 23 26 26 23 23 24
21 23 23 24 23 22 25 27 27 27 27 27 28 28 29 29 30 31 31 31 32 31 30 30 30 30 30 31 30 28 28 27 27 25 23 23 24 25 23 22 23 24
19 21 22 22 23 22 24 25 26 26 27 27 27 27 28 28 29 30 30 31 31 31 31 31 31 31 31 30 30 29 29 28 25 24 23 24 25 24 22 22 22 23
18 19 21 21 21 21 22 24 25 25 26 26 26 27 28 28 29 29 30 30 30 30 31 31 31 31 31 31 31 31 30 27 24 23 24 24 24 23 22 22 22 23
16 18 19 20 20 21 22 23 24 25 26 26 26 27 28 28 29 30 30 30 30 30 30 30 31 31 31 31 31 32 31 27 24 25 25 25 24 23 23 23 23 23
17 19 20 20 21 21 22 24 25 25 26 26 26 27 27 28 29 29 30 30 30 30 30 30 30 30 30 31 31 31 30 28 27 27 26 25 24 24 24 24 24 24
19 21 21 22 22 22 23 24 26 26 26 26 27 27 28 28 29 29 30 30 30 30 31 31 31 31 30 30 30 29 28 28 28 27 25 24 25 25 25 25 25 25
19 21 22 23 23 23 24 25 26 27 27 27 27 28 29 29 30 30 30 30 30 30 30 31 31 31 30 30 29 27 27 27 26 25 24 24 24 24 24 25 25 26
19 21 23 23 23 23 23 25 26 27 27 27 28 29 30 30 30 31 31 30 30 30 30 31 31 30 29 29 28 27 27 26 24 24 23 24 23 23 24 25 26 26
19 20 22 23 23 22 23 25 26 26 27 27 27 28 29 30 30 31 31 31 31 31 30 30 30 30 29 28 26 27 25 24 24 24 23 23 23 23 25 26 26 25
19 20 22 24 23 23 23 25 26 27 27 27 27 28 28 29 30 30 31 31 31 31 31 31 30 30 29 27 26 26 24 24 24 24 24 24 23 24 25 24 23 23
19 20 22 23 23 23 24 25 26 26 27 27 28 28 29 29 30 31 31 32 32 32 32 32 30 30 28 26 26 25 25 24 24 24 24 24 24 24 23 22 24 25
18 19 21 22 22 23 23 24 25 26 27 27 28 29 29 30 31 32 32 32 32 32 32 32 30 30 28 26 25 25 25 25 24 24 24 24 24 24 22 23 25 27
17 19 20 21 21 22 23 24 25 26 26 27 28 29 29 30 31 32 32 32 32 31 32 31 30 30 28 26 25 25 25 25 25 25 24 23 24 24 22 24 25 28
16 18 20 21 20 21 23 24 24 25 26 27 28 28 29 30 31 31 31 31 31 31 31 30 30 30 27 25 25 26 26 26 25 25 24 23 24 23 22 24 28 30
15 18 20 20 20 20 22 24 24 25 26 26 27 27 28 30 30 30 31 30 29 30 31 30 31 29 26 24 26 26 26 27 26 24 23 23 23 21 21 24 28 29
16 18 19 19 20 21 22 24 24 25 25 25 26 26 28 29 30 30 29 29 28 28 29 30 29 26 25 25 26 26 27 27 25 23 23 23 23 21 22 25 26 26
16 17 19 19 19 21 23 24 24 25 26 26 25 27 28 29 29 30 30 30 30 28 28 29 27 24 24 25 25 26 27 26 24 23 23 23 23 22 23 25 25 25
16 17 18 18 19 21 23 24 25 25 26 26 26 28 28 29 30 31 31 32 31 27 24 27 27 24 24 25 25 25 26 25 24 24 24 23 23 22 24 25 25 24
16 16 17 18 20 21 23 24 24 25 25 25 25 27 27 29 31 31 30 30 29 26 23 25 27 25 24 25 25 24 25 25 24 24 24 24 24 24 24 25 25 24
15 15 16 18 20 21 22 23 23 24 24 23 23 24 25 26 27 29 30 27 25 24 23 24 26 25 24 25 24 23 24 24 24 24 24 24 25 25 25 26 26 26
16 16 17 18 19 20 21 21 23 23 23 22 21 22 24 25 25 25 26 25 23 23 22 23 25 26 24 23 23 23 22 23 24 24 24 24 25 26 28 27 26 26
17 18 19 19 19 21 21 21 22 23 23 23 22 23 24 25 25 23 23 23 22 21 22 22 24 25 23 23 23 22 22 23 23 22 24 26 26 27 28 29 27 26
Wind_Direction
33 29 27 25 25 23 14 9 8 8 8 5 1 358 356 355 355 357 358 357 356 355 354 354 352 351 350 349 349 347 345 343 342 341 341 343 343 339 336 336 338 338
31 28 27 27 26 23 12 8 10 8 7 6 1 359 357 355 356 358 357 356 355 354 354 352 351 350 349 348 348 346 343 342 341 340 340 341 340 336 335 337 339 339
29 24 25 26 24 18 8 8 11 8 7 6 2 1 360 357 358 359 358 357 356 354 353 351 349 348 347 347 347 344 342 340 339 339 338 338 337 335 336 337 337 338
26 21 21 22 21 13 6 8 11 8 8 6 3 3 2 360 359 360 360 359 357 355 352 350 348 347 346 346 346 344 341 339 337 337 336 335 335 334 334 334 334 336
25 19 17 17 16 10 6 9 10 7 8 7 5 5 3 2 1 0 360 359 357 355 352 350 348 347 345 345 345 343 340 338 337 338 336 333 334 334 331 331 332 333
23 17 15 12 11 9 8 10 9 7 8 6 6 6 4 3 3 2 0 358 356 355 352 350 347 346 345 344 343 343 340 337 335 336 335 332 332 333 330 330 330 331
21 14 11 10 10 11 10 11 10 8 7 6 6 6 4 3 3 1 359 357 356 355 351 349 347 346 345 342 341 341 341 338 335 334 333 330 329 330 330 329 328 329
20 13 9 9 11 12 12 11 10 8 7 5 6 5 3 2 0 358 357 355 354 353 350 349 348 346 344 342 340 340 340 338 335 332 330 327 327 328 328 328 326 326
16 11 9 10 11 10 11 9 8 8 7 5 5 3 2 1 359 356 354 353 352 350 349 348 347 345 343 341 340 338 337 335 332 330 327 326 325 325 325 326 324 323
12 10 9 10 10 9 8 7 6 6 4 3 2 1 360 359 357 355 353 352 351 348 347 346 344 342 341 340 339 337 335 331 330 328 325 323 322 322 323 323 322 321
9 8 8 8 8 7 7 6 5 4 3 2 0 358 357 356 354 353 351 350 348 346 344 343 341 340 339 339 339 338 333 330 328 326 323 322 321 320 321 322 321 320
5 5 5 5 4 3 4 3 2 2 1 1 359 357 356 354 352 351 349 347 345 344 342 340 339 338 337 337 337 336 332 329 326 324 322 320 319 318 320 319 317 316
360 360 0 1 0 360 360 359 360 359 358 359 357 355 354 351 350 349 347 345 343 342 340 338 337 337 336 336 336 333 330 327 324 323 320 318 316 316 315 314 314 318
354 354 355 356 356 356 356 356 356 356 355 355 354 353 351 348 347 345 344 343 342 340 339 337 336 335 335 336 334 331 328 325 323 322 319 317 315 311 310 313 320 324
347 348 350 351 352 353 354 354 353 353 353 352 351 350 348 346 346 344 342 341 340 338 338 338 335 333 334 333 330 328 327 325 323 320 318 316 313 311 313 320 324 322
340 342 344 346 348 349 350 350 350 349 349 349 348 346 345 345 344 343 341 339 337 336 336 335 333 332 332 329 327 328 327 325 323 320 318 316 312 312 316 321 322 321
332 335 338 341 344 345 346 347 346 346 346 345 344 343 342 342 341 340 339 337 335 333 332 331 329 330 330 327 326 328 328 326 323 320 318 315 313 312 314 319 322 322
326 329 333 338 341 341 341 343 343 343 343 341 340 339 339 338 338 337 336 335 333 331 329 328 328 329 329 326 326 328 328 326 324 320 318 315 313 311 313 321 324 323
322 326 331 335 337 336 337 339 340 339 339 337 336 336 335 335 335 334 333 333 332 329 327 326 327 329 328 326 327 328 328 327 324 320 317 314 312 311 316 323 325 323
321 325 329 331 333 334 334 336 336 336 336 335 333 333 333 333 333 332 331 331 330 328 326 325 325 327 326 325 327 328 327 328 325 320 316 313 311 312 319 324 324 322
320 324 327 328 329 331 332 334 335 335 336 335 332 332 332 332 332 332 331 332 333 330 326 324 325 324 324 325 327 328 327 328 325 320 316 313 311 315 321 323 321 319
319 322 323 324 325 327 330 333 334 334 335 334 331 331 333 333 333 333 331 331 332 329 322 320 321 322 323 324 326 327 328 328 325 320 315 313 313 318 322 321 318 316
318 320 319 320 323 326 329 331 332 333 334 333 330 330 331 330 330 329 329 328 328 326 320 317 317 320 322 323 324 327 328 327 324 320 316 313 314 317 319 318 315 314
318 319 316 317 322 326 327 328 329 331 331 330 328 325 324 324 323 322 324 325 323 321 319 315 314 317 320 321 323 325 326 326 324 319 315 314 314 315 316 316 314 312
316 317 316 318 322 324 325 325 326 328 328 327 324 320 318 320 320 317 316 317 317 316 316 315 313 315 318 319 320 322 324 324 323 319 316 314 314 314 315 315 313 312
314 316 317 319 321 322 323 323 325 326 326 326 323 321 320 320 320 316 310 309 312 313 314 315 313 312 315 318 318 319 321 321 320 319 318 315 314 312 312 313 313 312